Cincinnati, OH

8:25 AM EST on December 15, 2019 (GMT -0500)
Cincinnati Municipal-Lunken

Weather History for KLUK - September, 2019

Change the Weather History Date:

Tuesday, September 10, 2019

  Actual Average Record
Temperature  
Mean Temperature 76 °F -  
Max Temperature 93 °F 80 °F 100 °F (1964)
Min Temperature 60 °F 60 °F 33 °F (1996)
Cooling Degree Days 12    
Growing Degree Days 26 (Base 50)    
Moisture  
Dew Point 64 °F    
Average Humidity 91    
Maximum Humidity 100    
Minimum Humidity 42    
Precipitation  
Precipitation 0.00 in - - ()
Sea Level Pressure  
Sea Level Pressure 30.19 in    
Wind  
Wind Speed 1 mph ()    
Max Wind Speed 8 mph    
Max Gust Speed -    
Visibility 4.2 miles    
Events Fog    
Averages and records for this station are not official NWS values.
T = Trace of Precipitation, MM = Missing Value Source: Averaged Metar Reports

Daily Weather History Graph

Daily Weather History Graph

Search for Another Location

Airport or City:

Astronomy

Sep. 10, 2019 Rise Set
Actual Time 7:14 AM EDT 7:54 PM EDT
Civil Twilight 6:47 AM EDT 8:21 PM EDT
Nautical Twilight 6:15 AM EDT 8:53 PM EDT
Astronomical Twilight 5:42 AM EDT 9:25 PM EDT
Moon 6:28 PM EDT (9/10) 3:41 AM EDT (9/10)
Length of Visible Light 13h 34m
Length of Day
12h 40m
Waxing Gibbous, 89% of the Moon is Illuminated
Sep 10
Waxing Gibbous
Sep 14
Full
Sep 21
Last Quarter
Sep 28
New
Oct 5
First Quarter

Hourly Weather History & Observations

Time (EDT) Temp. Heat Index Dew Point Humidity Pressure Visibility Wind Dir Wind Speed Gust Speed Precip Events Conditions
12:53 AM 64.9 °F - 64.0 °F 97% 30.19 in 5.0 mi Calm Calm - N/A   Clear
1:22 AM 64.0 °F - 64.0 °F 100% 30.20 in 2.0 mi Calm Calm - N/A   Clear
1:31 AM 64.0 °F - 64.0 °F 100% 30.20 in 5.0 mi Calm Calm - N/A   Clear
1:34 AM 64.0 °F - 64.0 °F 100% 30.20 in 1.5 mi Calm Calm - N/A   Clear
1:50 AM 64.4 °F - 62.6 °F 94% 30.20 in 3.0 mi Calm Calm - N/A   Clear
1:53 AM 64.0 °F - 64.0 °F 100% 30.20 in 3.0 mi Calm Calm - N/A   Clear
2:07 AM 64.0 °F - 63.0 °F 96% 30.20 in 1.8 mi Calm Calm - N/A   Clear
2:16 AM 64.0 °F - 64.0 °F 100% 30.21 in 3.0 mi Calm Calm - N/A   Clear
2:23 AM 64.0 °F - 64.0 °F 100% 30.21 in 0.8 mi Calm Calm - N/A   Clear
2:34 AM 63.0 °F - 63.0 °F 100% 30.21 in 1.2 mi Calm Calm - N/A   Partly Cloudy
2:36 AM 63.0 °F - 63.0 °F 100% 30.21 in 0.8 mi Calm Calm - N/A   Mist
2:46 AM 63.0 °F - 63.0 °F 100% 30.21 in 1.2 mi Calm Calm - N/A   Partly Cloudy
2:53 AM 63.0 °F - 63.0 °F 100% 30.20 in 5.0 mi Calm Calm - N/A   Clear
3:17 AM 64.0 °F - 63.0 °F 96% 30.21 in 1.8 mi Calm Calm - N/A   Clear
3:44 AM 63.0 °F - 63.0 °F 100% 30.20 in 0.5 mi NE 3.5 mph - N/A Fog Fog
3:53 AM 63.0 °F - 63.0 °F 100% 30.19 in 1.0 mi Calm Calm - N/A   Clear
4:10 AM 63.0 °F - 63.0 °F 100% 30.20 in 3.0 mi Calm Calm - N/A   Clear
4:12 AM 63.0 °F - 63.0 °F 100% 30.19 in 1.2 mi Calm Calm - N/A   Clear
4:14 AM 62.1 °F - 62.1 °F 100% 30.19 in 0.8 mi Calm Calm - N/A   Mist
4:25 AM 61.0 °F - 61.0 °F 100% 30.19 in 0.2 mi Calm Calm - N/A Fog Fog
4:32 AM 62.1 °F - 62.1 °F 100% 30.19 in 1.0 mi Calm Calm - N/A   Mist
4:39 AM 62.1 °F - 62.1 °F 100% 30.19 in 2.0 mi Calm Calm - N/A   Partly Cloudy
4:53 AM 62.1 °F - 62.1 °F 100% 30.18 in 5.0 mi Calm Calm - N/A   Partly Cloudy
4:57 AM 62.1 °F - 62.1 °F 100% 30.19 in 1.8 mi Calm Calm - N/A   Partly Cloudy
5:08 AM 62.1 °F - 62.1 °F 100% 30.19 in 0.8 mi Calm Calm - N/A   Mist
5:17 AM 61.0 °F - 61.0 °F 100% 30.19 in 0.2 mi Calm Calm - N/A Fog Fog
5:32 AM 61.0 °F - 61.0 °F 100% 30.19 in 0.5 mi Calm Calm - N/A Fog Fog
5:42 AM 62.1 °F - 62.1 °F 100% 30.19 in 2.0 mi Calm Calm - N/A   Overcast
5:49 AM 62.6 °F - 60.8 °F 94% 30.19 in 5.0 mi Calm Calm - N/A   Mostly Cloudy
5:53 AM 61.0 °F - 61.0 °F 100% 30.18 in 7.0 mi Calm Calm - N/A   Mostly Cloudy
5:59 AM 60.1 °F - 60.1 °F 100% 30.19 in 2.5 mi North 3.5 mph - N/A   Scattered Clouds
6:18 AM 62.1 °F - 61.0 °F 96% 30.20 in 1.5 mi East 3.5 mph - N/A   Clear
6:22 AM 62.1 °F - 62.1 °F 100% 30.20 in 4.0 mi East 3.5 mph - N/A   Clear
6:32 AM 60.1 °F - 60.1 °F 100% 30.20 in 0.8 mi Calm Calm - N/A   Mist
6:41 AM 60.1 °F - 60.1 °F 100% 30.20 in 0.2 mi Calm Calm - N/A Fog Fog
6:49 AM 60.8 °F - 60.8 °F 100% 30.21 in 0.5 mi Calm Calm - N/A Fog Fog
6:50 AM 60.1 °F - 60.1 °F 100% 30.20 in 0.5 mi Calm Calm - N/A Fog Fog
6:57 AM 60.1 °F - 60.1 °F 100% 30.21 in 1.0 mi Calm Calm - N/A   Mist
7:37 AM 61.0 °F - 61.0 °F 100% 30.22 in 1.0 mi Calm Calm - N/A Fog Patches of Fog
7:53 AM 61.0 °F - 61.0 °F 100% 30.21 in 2.5 mi Calm Calm - N/A Fog Patches of Fog
8:00 AM 62.1 °F - 62.1 °F 100% 30.22 in 1.5 mi Calm Calm - N/A Fog Patches of Fog
8:03 AM 62.1 °F - 62.1 °F 100% 30.22 in 3.0 mi Calm Calm - N/A Fog Patches of Fog
8:53 AM 66.9 °F - 66.0 °F 97% 30.22 in 7.0 mi NE 3.5 mph - N/A   Clear
9:53 AM 72.0 °F - 66.9 °F 84% 30.23 in 10.0 mi Calm Calm - N/A   Clear
10:53 AM 77.0 °F - 66.9 °F 71% 30.21 in 10.0 mi Calm Calm - N/A   Clear
11:53 AM 82.0 °F 84.9 °F 68.0 °F 62% 30.20 in 10.0 mi SSW 8.1 mph - N/A   Clear
12:53 PM 86.0 °F 89.4 °F 68.0 °F 55% 30.18 in 10.0 mi Calm Calm - N/A   Clear
1:53 PM 89.1 °F 93.7 °F 69.1 °F 52% 30.17 in 10.0 mi Calm Calm - N/A   Clear
2:53 PM 91.0 °F 95.6 °F 69.1 °F 48% 30.16 in 10.0 mi Calm Calm - N/A   Clear
3:53 PM 93.0 °F 96.4 °F 66.9 °F 42% 30.14 in 10.0 mi SW 8.1 mph - N/A   Partly Cloudy
4:53 PM 93.0 °F 96.4 °F 66.9 °F 42% 30.13 in 10.0 mi South 4.6 mph - N/A   Partly Cloudy
5:53 PM 91.0 °F 96.6 °F 70.0 °F 50% 30.12 in 10.0 mi SSE 6.9 mph - N/A   Partly Cloudy
6:53 PM 87.1 °F 94.5 °F 73.0 °F 63% 30.12 in 10.0 mi South 3.5 mph - N/A   Clear
7:53 PM 80.1 °F 84.2 °F 73.0 °F 79% 30.11 in 10.0 mi Calm Calm - N/A   Clear
8:53 PM 75.9 °F - 72.0 °F 87% 30.12 in 10.0 mi South 3.5 mph - N/A   Clear
9:53 PM 73.9 °F - 71.1 °F 91% 30.14 in 10.0 mi Calm Calm - N/A   Clear
10:53 PM 72.0 °F - 70.0 °F 93% 30.15 in 10.0 mi Calm Calm - N/A   Clear
11:53 PM 72.0 °F - 71.1 °F 97% 30.16 in 10.0 mi Calm Calm - N/A   Clear